Regional Weather Roundup
Issued by NWS

Home | Current Version | Previous Version | Text Only | Print | Product List | Glossary On
Versions: 1 2 3 4 5 6 7 8 9 10 11 12 13 14 15 16 17 18 19 20 21 22 23 24 25 26 27 28 29 30 31 32 33 34 35 36 37 38 39 40 41 42 43 44 45 46 47 48 49 50
000
ASUS43 KTOP 231659
RWRKS

WEATHER ROUNDUP FOR KANSAS
NATIONAL WEATHER SERVICE GOODLAND KS
1200 PM CDT WED MAY 23 2018

NOTE:  "FAIR" INDICATES FEW OR NO CLOUDS BELOW 12,000 FEET WITH NO
SIGNIFICANT WEATHER AND/OR OBSTRUCTIONS TO VISIBILITY.

KSZ001>006-013>018-027>032-041>047-231800-
NORTHWEST KANSAS

CITY           SKY/WX    TMP DP  RH WIND       PRES   REMARKS
GOODLAND       CLOUDY    76  53  44 S20G28    30.00F
HAYS           CLOUDY    81  61  50 SE18      30.01F
HILL CITY      CLOUDY    83  58  42 S20G31    29.99S
RUSSELL        CLOUDY    81  64  56 SE13      30.02F
$$

KSZ061>065-074>080-084>089-231800-
SOUTHWEST KANSAS

CITY           SKY/WX    TMP DP  RH WIND       PRES   REMARKS
DODGE CITY     CLOUDY    77  61  57 SE18      30.04R
GARDEN CITY    CLOUDY    78  57  48 S18G30    30.02F
GREAT BEND     CLOUDY    82  67  60 SE15      30.03F
LIBERAL        CLOUDY    75  61  61 S15       30.07S
$$

KSZ066>073-081>083-090>101-231800-
SOUTHEAST KANSAS

CITY           SKY/WX    TMP DP  RH WIND       PRES   REMARKS
CHANUTE        MOSUNNY   83  70  64 VRB3      30.11F
COFFEYVILLE    SUNNY     81  70  69 CALM      30.09F
HUTCHINSON     MOSUNNY   84  67  56 SW15G22   30.06F
MEDICINE LODGE   N/A     84  66  54 S10G17    30.03F
NEWTON         MOSUNNY   84  65  52 S15       30.09F
PARSONS        MOSUNNY   82  72  71 SW6       30.11F
WICHITA INTL   MOSUNNY   84  69  60 S14       30.07F
WICHITA JABRA  MOSUNNY   82  69  64 S12       30.07F
WICHITA MCCONL CLOUDY    83  67  57 SW9       30.08F
WINFIELD       MOSUNNY   82  69  64 SW5       30.09F
$$

KSZ007>012-019>026-033>040-048>060-102>105-231800-
NORTHEAST KANSAS

CITY           SKY/WX    TMP DP  RH WIND       PRES   REMARKS
CONCORDIA      SUNNY     85  66  53 S15       30.04F
EMPORIA        SUNNY     83  68  60 S6        30.09F
LAWRENCE       MOSUNNY   86  67  52 S8        30.09F
MANHATTAN      SUNNY     87  67  51 S9G21     30.06F
OLATHE IND     SUNNY     84  66  54 SE9       30.12S
OLATHE EXE     SUNNY     82  67  60 S9        30.11F
SALINA         CLOUDY    86  67  52 S14       30.05F
TOPEKA BILLARD MOSUNNY   85  69  58 S10       30.08F
TOPEKA FORBES  MOSUNNY   84  68  58 S10       30.09F
$$



USA.gov is the U.S. government's official web portal to all federal, state and local government web resources and services.